Retour au catalogue

STARLINK-32188

ActifCommunicationsVLEO
NORAD 60365·PAYLOAD·🇺🇸 United States

Lancé Aug 4, 2024 depuis Vandenberg Space Force Base

Loading…

Prochains Passages (prochaines 24 heures)

TLE

FraisSource: CelesTrak SupGP

Époque: Sep 14, 2026, 21:36 UTC

1 60365C 24138L   26257.90048611 -.00046687  00000+0 -15011-2 0  2578
2 60365  53.1584 149.5082 0001326  80.2115 292.9336 15.31729616    12

Suivez STARLINK-32188 en temps réel avec AllMySat

Download on the App Store